www.pogodaiklimat.ru

Погода и климат >> Архив погоды >> ОАЭ >> Эль-Айн


ПОГОДА в Эль-Айне

  • Прогноз погоды в Эль-Айне
  • Монитор погоды в Эль-Айне

АРХИВ ПОГОДЫ в Эль-Айне

Время (UTC), дата Ветер
(напр.,м/с)
 
Видим.   Явления Облачность Т
(С)
Тd
(С)
f
(%)
Тe
(С)
Тes
(С)
Комфортность P
(гПа)
Po
(гПа)
Тmin
(С)
Tmax
(С)
R
(мм)
R24
(мм)
S
(см)
21 15.02 В 2 10 км 5/0
[Ac trans]
+21.9 +8.6 43 +23 +23 комфорт 1016.4 985.9
00 16.02 ЮВ 5 10 км 3/0
[Ac trans]
+20.7 +4.9 35 +21 +21 комфорт 1015.9 985.3
03 16.02 ЮВ 9 10 км 3/0
[Ac trans]
+18.8 +14.9 78 +19 +19 1018.3 987.4
06 16.02 ЮВ 7 10 км 3/0
[Ac trans]
+21.8 +14.6 64 +25 +27 комфорт 1020.3 989.6 +18.7
09 16.02 Ю 5 10 км 5/0
[Ac trans]
+26.3 +12.6 43 +28 +33 жарко 1016.4 986.3
12 16.02 Ю 7 10 км 5/0
[Ac trans]
+28.1 +11.9 37 +29 +30 жарко 1012.9 983.1
15 16.02 Ю 6 10 км 4/0
[Ac trans]
+26.4 +11.6 40 +28 +28 жарко 1013.8 983.8
18 16.02 В 2 10 км 4/0
[Ac trans]
+23.4 +11.6 47 +26 +26 жарко 1015.8 985.4 +28.4
21 16.02 В 2 10 км 5/0
[Ac trans]
+21.4 +11.6 54 +23 +23 комфорт 1015.4 984.8
00 17.02 ЮВ 7 10 км в посл. час дождь 5/1 1500 м
[Sc Ac trans]
+21.1 +12.9 59 +23 +23 комфорт 1014.1 983.6 0.0
03 17.02 Ю 8 10 км 6/0
[Ac trans]
+20.1 +15.2 73 +22 +22 комфорт 1014.8 984.1
06 17.02 Ю 9 8000 м пыль 5/0
[Ac trans]
+22.0 +15.9 68 +26 +26 душно 1016.4 985.9 +20.1
09 17.02 Ю 5 8000 м в посл. час морось 6/4 1350 м
[Sc Ac trans]
+25.1 +15.0 53 +28 +31 жарко 1013.9 983.8
12 17.02 СЗ 3 7000 м слаб. дождь 9/4 1350 м
[Sc Ac trans]
+23.4 +16.8 66 +28 +30 душно 1012.5 982.2 0.2
15 17.02 СЗ 4 8000 м в посл. час морось 9/5 1350 м
[Sc Ac trans]
+21.2 +15.8 71 +24 +24 комфорт 1013.5 983.0
18 17.02 С 3 7000 м дождь {морось} 9/5 1200 м
[Cb calv Ac und]
+18.9 +18.1 95 +21 +21 комфорт 1015.1 984.3 +26.2
21 17.02 СЗ 5 8000 м слаб. дождь {гроза} 10/6 270 м
[Cu med, cong Ac trans]
+18.4 +16.4 88 +19 +19 1015.4 984.5
00 18.02 СЗ 5 10 км {гроза, дождь} 6/3 750 м
[Sc Ac trans]
+16.5 +12.7 78 +16 +16 1014.7 983.7 4
03 18.02 СЗ 3 10 км 3/0
[Ac trans]
+14.5 +12.0 85 +14 +14 1016.0 984.7
06 18.02 СЗ 3 10 км 4/3 1050 м
[Sc Ac trans]
+17.5 +11.6 68 +17 +23 1017.3 986.3 +14.4
09 18.02 З 5 10 км 5/0
[Ac trans Ci fib]
+20.6 +11.4 56 +23 +29 комфорт 1014.2 983.6
12 18.02 З 5 10 км 6/0
[Ac trans Ci fib]
+22.7 +6.2 34 +23 +25 комфорт 1011.3 981.0
15 18.02 З 4 10 км 6/0
[Ac trans Ci fib]
+20.2 +8.0 45 +21 +21 комфорт 1011.6 981.0
18 18.02 СЗ 4 10 км 5/0
[Ac trans]
+17.5 +10.0 61 +17 +17 1012.7 981.8 +22.9
21 18.02 нст 1 10 км 5/0
[Ac trans]
+16.0 +9.9 67 +17 +17 1012.0 981.0
00 19.02 С 1 10 км 4/0
[Ac trans]
+15.0 +10.5 74 +16 +16 1011.5 980.4
03 19.02 СВ 2 10 км 5/0
[Ac trans]
+14.1 +10.4 78 +14 +14 1012.3 981.1
06 19.02 В 3 10 км 8/3 900 м
[Sc Ac trans Ci fib]
+18.8 +10.7 59 +20 +23 1012.2 981.5 +14.0
09 19.02 ЮЗ 3 10 км 8/3 1050 м
[Cu hum Ac trans]
+24.4 +2.2 23 +23 +28 комфорт 1009.7 979.6
12 19.02 З 4 10 км 8/4 1500 м
[St Ac trans]
+24.0 +6.0 31 +24 +25 комфорт 1008.7 978.6
15 19.02 СЗ 3 10 км 8/0
[Ac As]
+21.8 +7.4 39 +23 +23 комфорт 1010.6 980.2
18 19.02 СЗ 4 10 км 6/0 2000 м
[Ac trans]
+19.6 +13.2 67 +21 +21 комфорт 1013.2 982.5 +24.8
21 19.02 З 5 10 км 8/0 2000 м
[Ac trans]
+17.6 +12.6 72 +17 +17 1014.8 983.9
00 20.02 З 5 10 км 4/0
[Ac trans]
+15.8 +10.2 69 +15 +15 1014.9 983.8
03 20.02 З 2 10 км 3/0
[Ac trans]
+14.3 +10.6 78 +14 +14 1016.2 984.9
06 20.02 СЗ 7 10 км 3/3 900 м
[Sc]
+18.6 +10.5 59 +18 +21 1017.8 986.9 +14.3
09 20.02 СЗ 6 7000 м пыль ясно +21.7 +6.6 38 +22 +28 комфорт 1016.7 986.1
12 20.02 СЗ 8 8000 м пыль ясно +21.9 +5.9 35 +22 +23 комфорт 1015.8 985.3
15 20.02 СЗ 6 10 км ясно +18.3 +7.5 49 +18 +18 1018.2 987.2
18 20.02 СЗ 2 10 км 1/1 900 м
[Sc]
+15.7 +9.2 65 +16 +16 1020.6 989.3 +22.5
21 20.02 нст 1 10 км ясно +14.2 +8.9 70 +15 +15 1020.4 988.9
00 21.02 С 1 10 км ясно +13.1 +8.6 74 +13 +13 1020.2 988.6
03 21.02 СВ 2 9000 м мгла 5/5 900 м
[Sc]
+12.7 +9.0 78 +12 +12 1022.0 990.3
06 21.02 С 4 10 км ясно +17.5 +9.0 57 +17 +25 1023.3 992.1 +12.1
09 21.02 нст 1 10 км ясно +21.0 +6.3 38 +23 +40 комфорт 1020.9 990.1
12 21.02 С 3 10 км 3/0
[Ac trans]
+22.7 +1.9 25 +22 +25 комфорт 1018.6 988.1
15 21.02 СЗ 3 10 км 1/0
[Ac trans]
+21.1 +3.9 32 +21 +21 комфорт 1019.3 988.6
18 21.02 СЗ 4 10 км ясно +16.7 +9.5 62 +16 +16 1020.8 989.6 +23.6
21 21.02 СЗ 3 10 км ясно +14.9 +9.7 71 +14 +14 1020.2 988.8
00 22.02 СВ 3 10 км 4/0
[Ac trans]
+14.2 +10.1 76 +13 +13 1019.6 988.2
03 22.02 СЗ 3 5000 м мгла 3/0
[Ac trans]
+12.5 +9.9 84 +11 +11 1020.1 988.5
06 22.02 С 2 9000 м мгла 4/0
[Ac trans Ci fib]
+17.8 +11.2 65 +18 +27 1021.9 990.8 +12.5
09 22.02 ЮЗ 3 10 км 8/0
[Ac trans Ci fib]
+22.8 +6.7 35 +23 +33 комфорт 1018.7 988.2
12 22.02 нст 1 10 км 8/0
[Ac trans Ci fib]
+23.6 +4.2 28 +23 +27 комфорт 1016.7 986.3
15 22.02 З 1 10 км 9/0
[Ac trans Ci fib]
+22.8 +3.5 28 +23 +23 комфорт 1016.6 986.2

 

Местоположение метеостанции Эль-Айн (ОАЭ): широта 24.27 долгота 55.60 высота над уровнем моря 262 м.

В архиве по умолчанию представлена погода в Эль-Айне за последнюю неделю. Архивные данные за месяц целиком и за предыдущие месяцы, начиная с января 2011 года, Вы можете получить, выбрав интересующий диапазон дат из раскрывающегося списка и нажав кнопку "Ввод!".


*Определитесь, кто Вы:
робот инопланетянин человек

Внимание! Время в таблицах - всемирное. Для получения местного времени необходимо прибавить поправку, которая равна 4 ч.

Смотрите также архив погоды в соседних городах и на ближайших метеорологических станциях:

Погода в Эль-Бурайми (Оман) (19 км)
Погода в Кумейре (Оман) (72 км)
Погода в Аль-Мактум аэропорту (ОАЭ) (83 км)
Погода в Абу-Даби (ОАЭ) (98 км)
Погода в Сухаре (Оман) (107 км)
Погода в Дубае (ОАЭ) (112 км)
Погода в Абу-Даби Батин аэропорту (ОАЭ) (117 км)
Погода в Фуджейре (ОАЭ) (118 км)
Погода в Шардже (ОАЭ) (118 км)
Погода в Ибри (Оман) (133 км)

Пояснения к столбцам:

Ветер - указаны скорость ветра в м/с - средняя за 10 мин, порывы в срок и между сроками (в фигурных скобках) и направление, откуда дует ветер: С - северный, СВ - северо-восточный, В - восточный, ЮВ - юго-восточный, Ю - южный, ЮЗ - юго-западный, З - западный, СЗ - северо-западный.
Видимость - горизонтальная дальность видимости в метрах или километрах. При видимости от 1 до 10 км при отсутствии осадков обычно наблюдается дымка, при ухудшении видимости до 1 км и менее - туман. В сухую погоду видимость может ухудшаться дымом, пылью или мглою.
Явления - указаны атмосферные явления, наблюдавшиеся в срок или в последний час перед сроком; фигурными скобками обозначены явления, наблюдавшиеся между сроками (за 1-3 часа до срока); квадратными скобками обозначены град или гололедные отложения с указанием их диаметра в мм.
Облачность - указаны через наклонную черту общая и нижняя облачность в баллах и высота нижней границы облаков в метрах; квадратными скобками обозначены формы облаков: Ci - перистые, Cs - перисто-слоистые, Cc - перисто-кучевые, Ac - высококучевые, As - высокослоистые, Sc - слоисто-кучевые, Ns - слоисто-дождевые, Cu - кучевые, Cb - кучево-дождевые. Подробнее классификацию облаков см. в Атласе облаков (PDF).
T - Температура воздуха - температура, измеренная на высоте 2 м над землей.
Td - Температура точки росы - температура, при понижении до которой содержащийся в воздухе водяной пар достигнет насыщения.
f - Относительная влажность воздуха - влажноcть воздуха, измеренная на высоте 2 м над землей.
Te - Эффективная температура - температура, которую ощущает одетый по сезону человек в тени. Характеристика душности погоды. При расчете учитывается влияние влажности воздуха и скорости ветра на теплоощущения человека.
Tes - Эффективная температура на солнце - температура, которую ощущает человек, с поправкой на солнечный нагрев. Характеристика знойности погоды. Зависит от высоты солнца над горизонтом, облачности и скорости ветра. Ночью, в пасмурную погоду, а также при ветре 12 м/с и более поправка равна нулю.
P - Атмосферное давление - приведенное к уровню моря атмосферное давление.
Po - Атмосферное давление - измеренное на уровне метеостанции атмосферное давление.
Tmin - Минимальная температура - минимум температуры воздуха на высоте 2 м над землей.
Tmax - Максимальная температура - максимум температуры воздуха на высоте 2 м над землей.
R - Количество осадков - Количество выпавших осадков за период времени, мм. При наведении курсора мыши на число - период времени, за который выпало указанное количество осадков.
R24 - Количество осадков - Количество выпавших осадков за 24 часа, мм.
S - Снежный покров - Высота снежного покрова, см. При наведении курсора мыши на число - состояние снежного покрова и степень покрытия местности в баллах.